UAL205 RPVM-KLAX

Flight info

Callsign UAL205
Flight time N/A
Altitude 29000
Route POXOS4P POXOS G578 TAC R337 BIKAS DCT 12E30 DCT YELLO G467 KITSS/N0503F310 G467 UNZ A450 NGUEN/N0497F330 A450 BRIUN/N0488F350 A450 KATHS V12 HNL V15 OGG DCT FITES R578 FOMAS/N0476F370 R578 FICKY GOATZ2
Aircraft B772/H-SDE2E3FGHIJ5LORVWXY/LB1D1

Departure

Time N/A
Airport Mactan Cebu International Airport (RPVM)

Arrival

Time 2026-04-22 13:08
Airport Los Angeles International Airport (KLAX)
Time Latitude Longitude Altitude Speed Heading
2026-04-22 12:45 32.89899 -119.04451 23857 ft 463 kts 44°
2026-04-22 12:46 32.92105 -119.01590 23003 ft 469 kts 44°
2026-04-22 12:46 32.94242 -118.98804 22166 ft 445 kts 44°
2026-04-22 12:46 32.96308 -118.96108 21054 ft 443 kts 44°
2026-04-22 12:46 32.98350 -118.93447 20629 ft 438 kts 44°
2026-04-22 12:47 33.00399 -118.90774 20122 ft 436 kts 44°
2026-04-22 12:47 33.02465 -118.88077 19636 ft 433 kts 44°
2026-04-22 12:47 33.04453 -118.85480 19156 ft 430 kts 44°
2026-04-22 12:47 33.06492 -118.82810 18663 ft 427 kts 44°
2026-04-22 12:48 33.08487 -118.80199 18178 ft 425 kts 44°
2026-04-22 12:48 33.10451 -118.77626 17710 ft 422 kts 44°
2026-04-22 12:48 33.12424 -118.75040 17232 ft 420 kts 44°
2026-04-22 12:48 33.14380 -118.72474 16760 ft 417 kts 44°
2026-04-22 12:49 33.16326 -118.69919 16331 ft 414 kts 44°
2026-04-22 12:49 33.18237 -118.67408 16156 ft 404 kts 44°
2026-04-22 12:49 33.20082 -118.64913 15924 ft 396 kts 46°
2026-04-22 12:49 33.21848 -118.62425 15797 ft 391 kts 46°
2026-04-22 12:50 33.23589 -118.59949 15697 ft 388 kts 46°
2026-04-22 12:50 33.25321 -118.57490 15594 ft 386 kts 46°
2026-04-22 12:50 33.27060 -118.55044 15498 ft 386 kts 46°
2026-04-22 12:50 33.28800 -118.52601 15391 ft 386 kts 46°
2026-04-22 12:51 33.30544 -118.50149 15298 ft 387 kts 46°
2026-04-22 12:51 33.32278 -118.47704 15186 ft 385 kts 47°
2026-04-22 12:51 33.33661 -118.44993 15086 ft 386 kts 69°
2026-04-22 12:51 33.34165 -118.41847 14993 ft 388 kts 91°
2026-04-22 12:52 33.34001 -118.38650 14919 ft 387 kts 96°
2026-04-22 12:52 33.33786 -118.35422 14816 ft 391 kts 96°
2026-04-22 12:52 33.33580 -118.32182 14707 ft 390 kts 95°
2026-04-22 12:52 33.33383 -118.28954 14594 ft 387 kts 95°
2026-04-22 12:53 33.33196 -118.25750 14489 ft 385 kts 95°
2026-04-22 12:53 33.33015 -118.22609 14387 ft 383 kts 95°
2026-04-22 12:53 33.32836 -118.19444 14292 ft 381 kts 95°
2026-04-22 12:53 33.32657 -118.16293 14189 ft 379 kts 95°
2026-04-22 12:54 33.32491 -118.13151 14078 ft 376 kts 91°
2026-04-22 12:54 33.32901 -118.10040 13959 ft 385 kts 68°
2026-04-22 12:54 33.34227 -118.07263 13487 ft 386 kts 45°
2026-04-22 12:54 33.36083 -118.05018 13033 ft 377 kts 40°
2026-04-22 12:55 33.37343 -118.03521 12730 ft 377 kts 41°
2026-04-22 12:55 33.39889 -118.00852 12121 ft 357 kts 23°
2026-04-22 12:55 33.41415 -118.00109 11897 ft 345 kts
2026-04-22 12:55 33.43716 -117.99738 11483 ft 320 kts 354°
2026-04-22 12:56 33.45842 -117.99828 11100 ft 296 kts 352°
2026-04-22 12:56 33.47893 -117.99956 10772 ft 294 kts 352°
2026-04-22 12:56 33.49931 -118.00084 10442 ft 292 kts 352°
2026-04-22 12:56 33.51958 -118.00201 10106 ft 291 kts 353°
2026-04-22 12:57 33.53976 -118.00305 9765 ft 289 kts 353°
2026-04-22 12:57 33.55980 -118.00403 9430 ft 288 kts 354°
2026-04-22 12:57 33.57974 -118.00499 9096 ft 286 kts 354°
2026-04-22 12:57 33.59930 -118.00590 8776 ft 285 kts 354°
2026-04-22 12:58 33.61905 -118.00678 8446 ft 283 kts 355°
2026-04-22 12:58 33.63867 -118.00766 8117 ft 279 kts 355°
2026-04-22 12:58 33.65717 -118.00997 7903 ft 258 kts 344°
2026-04-22 12:58 33.67432 -118.01575 7778 ft 260 kts 340°
2026-04-22 12:59 33.69179 -118.02237 7668 ft 266 kts 340°
2026-04-22 12:59 33.70954 -118.02896 7519 ft 265 kts 341°
2026-04-22 12:59 33.72694 -118.03516 7376 ft 254 kts 341°
2026-04-22 12:59 33.74341 -118.04089 7232 ft 240 kts 341°
2026-04-22 13:00 33.75926 -118.04638 7117 ft 233 kts 341°
2026-04-22 13:00 33.77469 -118.05171 7002 ft 229 kts 341°
2026-04-22 13:00 33.78986 -118.05746 6778 ft 228 kts 337°
2026-04-22 13:00 33.80451 -118.06447 6539 ft 225 kts 335°
2026-04-22 13:01 33.81892 -118.07155 6282 ft 224 kts 336°
2026-04-22 13:01 33.83335 -118.07859 6030 ft 224 kts 336°
2026-04-22 13:01 33.84781 -118.08559 5773 ft 225 kts 336°
2026-04-22 13:01 33.86229 -118.09256 5511 ft 224 kts 336°
2026-04-22 13:02 33.87671 -118.09951 5247 ft 223 kts 336°
2026-04-22 13:02 33.89114 -118.10631 4988 ft 220 kts 342°
2026-04-22 13:02 33.90602 -118.10865 4772 ft 213 kts 358°
2026-04-22 13:02 33.92068 -118.10905 4566 ft 206 kts 356°
2026-04-22 13:03 33.93376 -118.11336 4323 ft 189 kts 321°
2026-04-22 13:03 33.94367 -118.12385 4235 ft 194 kts 320°
2026-04-22 13:03 33.95432 -118.13384 3969 ft 190 kts 317°
2026-04-22 13:03 33.96050 -118.14696 3729 ft 179 kts 277°
2026-04-22 13:04 33.95968 -118.16147 3556 ft 176 kts 264°
2026-04-22 13:04 33.95840 -118.17659 3369 ft 181 kts 265°
2026-04-22 13:04 33.95700 -118.19157 3127 ft 179 kts 264°
2026-04-22 13:04 33.95554 -118.20608 2904 ft 176 kts 264°
2026-04-22 13:05 33.95406 -118.22058 2689 ft 174 kts 263°
2026-04-22 13:05 33.95258 -118.23499 2488 ft 173 kts 263°
2026-04-22 13:05 33.95108 -118.24952 2267 ft 175 kts 263°
2026-04-22 13:05 33.94960 -118.26388 2030 ft 168 kts 262°
2026-04-22 13:06 33.94818 -118.27759 1804 ft 164 kts 262°
2026-04-22 13:06 33.94679 -118.29117 1611 ft 162 kts 263°
2026-04-22 13:06 33.94547 -118.30408 1411 ft 150 kts 263°
2026-04-22 13:06 33.94421 -118.31636 1209 ft 147 kts 263°
2026-04-22 13:07 33.94295 -118.32854 1003 ft 144 kts 263°
2026-04-22 13:07 33.94174 -118.34035 807 ft 141 kts 263°
2026-04-22 13:07 33.94052 -118.35206 589 ft 139 kts 262°
2026-04-22 13:07 33.93924 -118.36357 428 ft 137 kts 263°
2026-04-22 13:08 33.93811 -118.37503 261 ft 142 kts 263°
2026-04-22 13:08 33.93692 -118.38691 119 ft 140 kts 263°
2026-04-22 13:08 33.93589 -118.39729 99 ft 106 kts 263°
2026-04-22 13:08 33.93530 -118.40295 99 ft 48 kts 263°
2026-04-22 13:09 33.93558 -118.40543 100 ft 24 kts 291°
2026-04-22 13:09 33.93598 -118.40685 98 ft 15 kts 276°
2026-04-22 13:09 33.93602 -118.40815 98 ft 16 kts 278°
2026-04-22 13:09 33.93678 -118.40897 100 ft 16 kts 344°
2026-04-22 13:10 33.93760 -118.40901 98 ft 11 kts 26°
2026-04-22 13:10 33.93795 -118.40823 99 ft 11 kts 76°
2026-04-22 13:10 33.93810 -118.40681 98 ft 24 kts 84°
2026-04-22 13:10 33.93830 -118.40484 99 ft 24 kts 83°
2026-04-22 13:11 33.93849 -118.40288 100 ft 24 kts 84°
2026-04-22 13:11 33.93864 -118.40128 102 ft 17 kts 83°
2026-04-22 13:11 33.93880 -118.39988 101 ft 17 kts 82°
2026-04-22 13:11 33.93893 -118.39858 100 ft 11 kts 85°
2026-04-22 13:12 33.93941 -118.39805 100 ft 11 kts 359°
2026-04-22 13:12 33.94018 -118.39821 98 ft 11 kts 357°
2026-04-22 13:12 33.94061 -118.39824 97 ft 4 kts 338°
2026-04-22 13:12 33.94082 -118.39856 97 ft 5 kts 306°
2026-04-22 13:13 33.94099 -118.39883 98 ft 3 kts 307°
2026-04-22 13:13 33.94104 -118.39893 98 ft 2 kts 306°
2026-04-22 13:13 33.94108 -118.39898 99 ft 0 kts 306°